Regional Weather Roundup
Issued by NWS

Home | Current Version | Previous Version | Text Only | Print | Product List | Glossary Off
Versions: 1 2 3 4 5 6 7 8 9 10 11 12 13 14 15 16 17 18 19 20 21 22 23 24 25 26 27 28 29 30 31 32 33 34 35 36 37 38 39 40 41 42 43 44 45 46 47 48 49 50

653
ASUS45 KCYS 211810
RWRWY

WYOMING REGIONAL WEATHER ROUNDUP
NATIONAL WEATHER SERVICE CHEYENNE WY
1200 PM MDT WED JUN 21 2017

NOTE:  "FAIR" INDICATES FEW OR NO CLOUDS BELOW 12,000 FEET
WITH NO SIGNIFICANT WEATHER AND/OR OBSTRUCTIONS TO VISIBILITY.

WYZ001-211900-
YELLOWSTONE NATIONAL PARK

CITY           SKY/WX    TMP DP  RH WIND       PRES   REMARKS
LK YELLOWSTONE   N/A     71  34  25 VRB6G22   30.21F
6HR MIN TEMP:  37; 6HR MAX TEMP:  71;

W YELLOWSTONE  NOT AVBL

$$
WYZ002>013-054>058-071-098>099-211900-
NORTHERN WYOMING

CITY           SKY/WX    TMP DP  RH WIND       PRES   REMARKS
JACKSON        SUNNY     73  52  46 S12       30.13F
CODY           FAIR      75  48  38 NE10G18   30.01F
GREYBULL       FAIR      84  46  26 NW6G16    29.91S
6HR MIN TEMP:  61; 6HR MAX TEMP:  85;

WORLAND        FAIR      83  50  31 NW5       29.92F
6HR MIN TEMP:  53; 6HR MAX TEMP:  83;

SHERIDAN       FAIR      78  52  40 NW10      29.98S
BUFFALO        FAIR      74  50  42 N16G26    30.03S
6HR MIN TEMP:  64; 6HR MAX TEMP:  74;

GILLETTE       FAIR      80  49  33 N12G18    29.96S
6HR MIN TEMP:  56; 6HR MAX TEMP:  81;

HULETT         FAIR      79  48  34 N14       29.97S
NEWCASTLE      FAIR      82  48  30 NW14G22   29.92F

$$
WYZ014>020-022>026-101>103-211900-
CENTRAL WYOMING

CITY           SKY/WX    TMP DP  RH WIND       PRES   REMARKS
BIG PINEY      FAIR      81  42  25 VRB7      30.19F
6HR MIN TEMP:  46; 6HR MAX TEMP:  81;

PINEDALE       FAIR      77  43  29 NW12G18   30.21F
DUBOIS         FAIR      77  36  22 NW22G37   30.13S
LANDER         FAIR      86  43  22 VRB6      30.03F
6HR MIN TEMP:  60; 6HR MAX TEMP:  86;

RIVERTON       FAIR      84  41  21 VRB5      30.02F
6HR MIN TEMP:  62; 6HR MAX TEMP:  84;

CASPER         FAIR      87  42  20 NE6G17    30.01F
6HR MIN TEMP:  63; 6HR MAX TEMP:  88;

DOUGLAS        FAIR      85  49  28 N8        30.00F
6HR MIN TEMP:  56; 6HR MAX TEMP:  87;


$$
WYZ021-027>030-104>119-211900-
SOUTHERN WYOMING

CITY           SKY/WX    TMP DP  RH WIND       PRES   REMARKS
EVANSTON       FAIR      79  43  27 SW14      30.23S
6HR MIN TEMP:  53; 6HR MAX TEMP:  80;

KEMMERER         N/A     79  41  25 W13G21    30.24F
FORT BRIDGER   FAIR      85  37  18 W7G17     30.24S
ROCK SPRINGS   FAIR      83  36  18 W10       30.18F
6HR MIN TEMP:  56; 6HR MAX TEMP:  84;

DIXON          FAIR      86  32  14 W8        30.20F
RAWLINS        FAIR      85  36  17 W24G31    30.17F
6HR MIN TEMP:  58; 6HR MAX TEMP:  85;

SARATOGA       FAIR      82  32  16 W21G29    30.21S
LARAMIE        FAIR      84  32  15 NW23G31   30.19F
6HR MIN TEMP:  58; 6HR MAX TEMP:  84;

CHEYENNE       FAIR      86  30  13 NW20G28   30.10S
6HR MIN TEMP:  66; 6HR MAX TEMP:  86;

TORRINGTON     FAIR      91  42  18 NW16      29.91S
6HR MIN TEMP:  58; 6HR MAX TEMP:  91;

PINE BLUFFS    FAIR      90  34  13 NW23      30.01F

$$




USA.gov is the U.S. government's official web portal to all federal, state and local government web resources and services.